Knoxville, IA

8:30 PM CDT on July 20, 2017 (GMT -0500)
Knoxville Municipal

Weather History for KOXV - February, 2013

Change the Weather History Date:

Thursday, February 14, 2013

  Actual Average Record
Temperature  
Mean Temperature 35 °F -  
Max Temperature 44 °F 36 °F 69 °F (1954)
Min Temperature 24 °F 19 °F -11 °F (1960)
Degree Days  
Heating Degree Days 30    
Moisture  
Dew Point 26 °F    
Average Humidity 68    
Maximum Humidity 81    
Minimum Humidity 52    
Precipitation  
Precipitation 0.00 in - - ()
Sea Level Pressure  
Sea Level Pressure 29.92 in    
Wind  
Wind Speed 12 mph (WNW)    
Max Wind Speed 22 mph    
Max Gust Speed 30 mph    
Visibility 10 miles    
Events      
Averages and records for this station are not official NWS values.
T = Trace of Precipitation, MM = Missing Value Source: NWS Daily Summary

Daily Weather History Graph

Daily Weather History Graph

Search for Another Location

Airport or City:

Trip Planner

Search our weather history database for the weather conditions in past years. The results will help you decide how hot, cold, wet, or windy it might be!

Date:

Astronomy

Feb. 14, 2013 Rise Set
Actual Time 7:08 AM CST 5:45 PM CST
Civil Twilight 6:39 AM CST 6:13 PM CST
Nautical Twilight 6:07 AM CST 6:46 PM CST
Astronomical Twilight 5:35 AM CST 7:18 PM CST
Moon 9:06 AM CST (2/14) 10:52 PM CST (2/14)
Length of Visible Light 11h 34m
Length of Day
10h 37m
Waxing Crescent, 22% of the Moon is Illuminated
Feb 14
Waxing Crescent
Feb 17
First Quarter
Feb 25
Full
Mar 4
Last Quarter
Mar 11
New

Hourly Weather History & Observations

Time (CST) Temp. Windchill Dew Point Humidity Pressure Visibility Wind Dir Wind Speed Gust Speed Precip Events Conditions
12:15 AM 35.6 °F 29.2 °F 26.6 °F 70% 29.71 in 10.0 mi West 8.1 mph - N/A   Clear
12:35 AM 35.6 °F 29.2 °F 26.6 °F 70% 29.71 in 10.0 mi West 8.1 mph - N/A   Clear
12:55 AM 35.6 °F 29.2 °F 26.6 °F 70% 29.72 in 10.0 mi West 8.1 mph - N/A   Clear
1:15 AM 35.6 °F 29.2 °F 26.6 °F 70% 29.72 in 10.0 mi West 8.1 mph - N/A   Clear
1:35 AM 33.8 °F 27.0 °F 26.6 °F 75% 29.72 in 10.0 mi West 8.1 mph - N/A   Clear
1:55 AM 33.8 °F 27.0 °F 26.6 °F 75% 29.73 in 10.0 mi West 8.1 mph - N/A   Clear
2:15 AM 33.8 °F 27.7 °F 26.6 °F 75% 29.73 in 10.0 mi West 6.9 mph - N/A   Clear
2:35 AM 35.6 °F 29.2 °F 26.6 °F 70% 29.73 in 10.0 mi West 8.1 mph - N/A   Clear
2:55 AM 33.8 °F 26.4 °F 26.6 °F 75% 29.73 in 10.0 mi WSW 9.2 mph - N/A   Clear
3:15 AM 35.6 °F 27.5 °F 28.4 °F 75% 29.74 in 10.0 mi West 11.5 mph - N/A   Clear
3:35 AM 35.6 °F 27.5 °F 28.4 °F 75% 29.74 in 10.0 mi West 11.5 mph - N/A   Clear
3:55 AM 33.8 °F 25.8 °F 26.6 °F 75% 29.74 in 10.0 mi West 10.4 mph - N/A   Scattered Clouds
4:15 AM 33.8 °F 24.3 °F 28.4 °F 81% 29.75 in 10.0 mi West 13.8 mph - N/A   Clear
4:35 AM 35.6 °F 26.6 °F 28.4 °F 75% 29.76 in 10.0 mi WNW 13.8 mph - N/A   Clear
4:55 AM 35.6 °F 25.2 °F 28.4 °F 75% 29.77 in 10.0 mi WNW 18.4 mph 24.2 mph N/A   Mostly Cloudy
5:15 AM 37.4 °F 28.2 °F 28.4 °F 70% 29.78 in 10.0 mi WNW 16.1 mph 29.9 mph N/A   Overcast
5:35 AM 37.4 °F 27.2 °F 28.4 °F 70% 29.78 in 10.0 mi WNW 19.6 mph 28.8 mph N/A   Overcast
5:55 AM 37.4 °F 29.8 °F 28.4 °F 70% 29.79 in 10.0 mi WNW 11.5 mph - N/A   Overcast
6:15 AM 37.4 °F 27.8 °F 28.4 °F 70% 29.80 in 10.0 mi WNW 17.3 mph 21.9 mph N/A   Overcast
6:35 AM 37.4 °F 28.9 °F 28.4 °F 70% 29.82 in 10.0 mi NW 13.8 mph - N/A   Overcast
6:55 AM 35.6 °F 27.1 °F 28.4 °F 75% 29.83 in 10.0 mi NW 12.7 mph 19.6 mph N/A   Overcast
7:15 AM 35.6 °F 25.5 °F 26.6 °F 70% 29.85 in 10.0 mi NW 17.3 mph 25.3 mph N/A   Overcast
7:35 AM 35.6 °F 26.6 °F 26.6 °F 70% 29.85 in 10.0 mi WNW 13.8 mph - N/A   Mostly Cloudy
7:55 AM 33.8 °F 24.8 °F 26.6 °F 75% 29.86 in 10.0 mi WNW 12.7 mph - N/A   Scattered Clouds
8:15 AM 33.8 °F 23.9 °F 26.6 °F 75% 29.87 in 10.0 mi WNW 15.0 mph - N/A   Mostly Cloudy
8:35 AM 33.8 °F 23.9 °F 26.6 °F 75% 29.89 in 10.0 mi WNW 15.0 mph - N/A   Overcast
8:55 AM 33.8 °F 23.9 °F 26.6 °F 75% 29.90 in 10.0 mi WNW 15.0 mph - N/A   Overcast
9:15 AM 35.6 °F 25.2 °F 26.6 °F 70% 29.91 in 10.0 mi NW 18.4 mph 26.5 mph N/A   Overcast
9:35 AM 35.6 °F 25.5 °F 26.6 °F 70% 29.92 in 10.0 mi NW 17.3 mph - N/A   Overcast
9:55 AM 35.6 °F 26.6 °F 26.6 °F 70% 29.92 in 10.0 mi NW 13.8 mph 19.6 mph N/A   Overcast
10:15 AM 35.6 °F 26.2 °F 26.6 °F 70% 29.92 in 10.0 mi NW 15.0 mph 19.6 mph N/A   Overcast
10:35 AM 37.4 °F 29.3 °F 26.6 °F 65% 29.91 in 10.0 mi NW 12.7 mph 18.4 mph N/A   Overcast
10:55 AM 37.4 °F 29.8 °F 26.6 °F 65% 29.92 in 10.0 mi NW 11.5 mph 19.6 mph N/A   Overcast
11:15 AM 37.4 °F 29.8 °F 26.6 °F 65% 29.92 in 10.0 mi NW 11.5 mph - N/A   Mostly Cloudy
11:35 AM 39.2 °F 32.5 °F 28.4 °F 65% 29.92 in 10.0 mi West 10.4 mph - N/A   Mostly Cloudy
11:55 AM 39.2 °F 31.2 °F 26.6 °F 61% 29.93 in 10.0 mi WNW 13.8 mph - N/A   Mostly Cloudy
12:15 PM 39.2 °F 32.0 °F 26.6 °F 61% 29.93 in 10.0 mi WNW 11.5 mph - N/A   Scattered Clouds
12:35 PM 41.0 °F 33.9 °F 28.4 °F 61% 29.92 in 10.0 mi WNW 12.7 mph - N/A   Scattered Clouds
12:55 PM 42.8 °F 35.8 °F 28.4 °F 57% 29.92 in 10.0 mi WNW 13.8 mph 20.7 mph N/A   Scattered Clouds
1:15 PM 42.8 °F 35.1 °F 28.4 °F 57% 29.92 in 10.0 mi WNW 16.1 mph 26.5 mph N/A   Mostly Cloudy
1:35 PM 44.6 °F 36.6 °F 28.4 °F 53% 29.92 in 10.0 mi West 19.6 mph 24.2 mph N/A   Mostly Cloudy
1:55 PM 42.8 °F 35.8 °F 28.4 °F 57% 29.92 in 10.0 mi WNW 13.8 mph 21.9 mph N/A   Mostly Cloudy
2:15 PM 42.8 °F 35.1 °F 28.4 °F 57% 29.93 in 10.0 mi WNW 16.1 mph 23.0 mph N/A   Overcast
2:35 PM 42.8 °F 35.4 °F 28.4 °F 57% 29.93 in 10.0 mi WNW 15.0 mph - N/A   Overcast
2:55 PM 41.0 °F 31.6 °F 28.4 °F 61% 29.94 in 10.0 mi WNW 20.7 mph - N/A   Overcast
3:15 PM 41.0 °F 32.2 °F 26.6 °F 57% 29.95 in 10.0 mi WNW 18.4 mph 26.5 mph N/A   Overcast
3:35 PM 39.2 °F 30.2 °F 26.6 °F 61% 29.96 in 10.0 mi West 17.3 mph 21.9 mph N/A   Drizzle
3:55 PM 39.2 °F 30.5 °F 24.8 °F 56% 29.97 in 10.0 mi West 16.1 mph - N/A   Overcast
4:15 PM 39.2 °F 30.2 °F 23.0 °F 52% 29.97 in 10.0 mi WNW 17.3 mph 23.0 mph N/A   Overcast
4:35 PM 39.2 °F 29.0 °F 23.0 °F 52% 29.98 in 10.0 mi NW 21.9 mph 27.6 mph N/A   Overcast
4:55 PM 39.2 °F 30.2 °F 24.8 °F 56% 29.99 in 10.0 mi West 17.3 mph 21.9 mph N/A   Overcast
5:15 PM 37.4 °F 28.5 °F 24.8 °F 60% 30.00 in 10.0 mi West 15.0 mph 21.9 mph N/A   Mostly Cloudy
5:35 PM 37.4 °F 28.9 °F 24.8 °F 60% 30.00 in 10.0 mi West 13.8 mph 18.4 mph N/A   Mostly Cloudy
5:55 PM 37.4 °F 29.3 °F 24.8 °F 60% 30.01 in 10.0 mi WNW 12.7 mph - N/A   Overcast
6:15 PM 37.4 °F 30.3 °F 24.8 °F 60% 30.02 in 10.0 mi WNW 10.4 mph - N/A   Overcast
6:35 PM 37.4 °F 27.2 °F 26.6 °F 65% 30.03 in 10.0 mi NNW 19.6 mph 26.5 mph N/A   Overcast
6:55 PM 35.6 °F 27.1 °F 26.6 °F 70% 30.04 in 10.0 mi NNW 12.7 mph - N/A   Overcast
7:15 PM 33.8 °F 26.4 °F 24.8 °F 70% 30.05 in 10.0 mi NW 9.2 mph - N/A   Scattered Clouds
7:35 PM 32.0 °F 23.6 °F 24.8 °F 75% 30.06 in 10.0 mi NW 10.4 mph 16.1 mph N/A   Scattered Clouds
7:55 PM 32.0 °F 23.6 °F 24.8 °F 75% 30.06 in 10.0 mi NW 10.4 mph - N/A   Mostly Cloudy
8:15 PM 33.8 °F 24.8 °F 24.8 °F 70% 30.07 in 10.0 mi NNW 12.7 mph 23.0 mph N/A   Overcast
8:35 PM 32.0 °F 22.5 °F 24.8 °F 75% 30.07 in 10.0 mi NNW 12.7 mph - N/A   Overcast
8:55 PM 32.0 °F 24.2 °F 24.8 °F 75% 30.08 in 10.0 mi NNW 9.2 mph - N/A   Overcast
9:15 PM 30.2 °F 20.2 °F 21.2 °F 69% 30.09 in 10.0 mi NW 12.7 mph - N/A   Scattered Clouds
9:35 PM 28.4 °F 19.1 °F 21.2 °F 74% 30.10 in 10.0 mi NW 10.4 mph - N/A   Scattered Clouds
9:55 PM 28.4 °F 18.5 °F 21.2 °F 74% 30.11 in 10.0 mi NW 11.5 mph - N/A   Scattered Clouds
10:15 PM 28.4 °F 18.0 °F 21.2 °F 74% 30.12 in 10.0 mi NW 12.7 mph - N/A   Scattered Clouds
10:35 PM 26.6 °F 15.2 °F 21.2 °F 80% 30.13 in 10.0 mi NW 13.8 mph 17.3 mph N/A   Scattered Clouds
10:55 PM 26.6 °F 14.7 °F 17.6 °F 69% 30.13 in 10.0 mi NNW 15.0 mph 21.9 mph N/A   Scattered Clouds
11:15 PM 26.6 °F 13.4 °F 17.6 °F 69% 30.14 in 10.0 mi NNW 18.4 mph - N/A   Scattered Clouds
11:35 PM 26.6 °F 13.4 °F 17.6 °F 69% 30.15 in 10.0 mi NNW 18.4 mph 24.2 mph N/A   Mostly Cloudy
11:55 PM 24.8 °F 11.9 °F 14.0 °F 64% 30.16 in 10.0 mi NNW 16.1 mph 23.0 mph N/A   Scattered Clouds